ALEXANDRIA / NOUZHA current weather conditions

sailwx.info

Wind from 100 at 7 knots

Air temperature 19.0° C
Dewpoint 13.0° C

Last reported at 2015-Apr-26 21:00 UTC.
Time now 2015-Apr-26 22:38 UTC

Location: N 31°12' E 029°57'.
View on Google Maps.

See reports from other nearby stations

  
Tides and Currents Weather Stations Pressure Air Temp Water Temp Dewpoint Dewpoint Depression Visibility Wind Speed Wind Dir Waves Ship Positions
date/time (UTC)wind fromknots sea level pressurealtimeterstation pressurevisibilityair tempwater tempwave heightnotes
2015-Apr-26 21:00 100 7 19.0
2015-Apr-26 20:00 100 7 20.0
2015-Apr-26 19:00 070 10 21.0
2015-Apr-26 18:00 060 6 21.0
2015-Apr-26 17:00 060 6 22.0
2015-Apr-26 16:00 050 7 23.0
2015-Apr-26 15:00 040 8 24.0
2015-Apr-26 14:00 040 8 26.0
2015-Apr-26 13:00 060 9 28.0
2015-Apr-26 12:00 090 7 30.0
2015-Apr-26 11:00 090 7 27.0
2015-Apr-26 10:00 080 9 25.0
2015-Apr-26 09:00 100 8 24.0
2015-Apr-26 08:00 110 8 22.0
2015-Apr-26 07:00 110 8 19.0
2015-Apr-26 06:00 100 6 17.0
2015-Apr-26 05:00 100 4 16.0
2015-Apr-26 04:00 080 3 14.0
2015-Apr-26 03:00 100 3 14.0
2015-Apr-26 02:00 090 3 14.0
2015-Apr-26 01:00 280 5 14.0
2015-Apr-26 00:00 080 3 14.0
2015-Apr-25 23:00 070 3 14.0
2015-Apr-25 22:00 090 4 15.0
2015-Apr-25 21:00 080 8 15.0
2015-Apr-25 20:00 080 7 16.0
2015-Apr-25 19:00 050 8 17.0
2015-Apr-25 18:00 050 9 17.0
2015-Apr-25 17:00 050 8 18.0
2015-Apr-25 16:00 040 11 19.0
2015-Apr-25 15:00 060 10 21.0
2015-Apr-25 14:00 030 10 22.0
2015-Apr-25 13:00 360 9 22.0
2015-Apr-25 12:00 030 7 23.0
2015-Apr-25 11:00 030 8 23.0
2015-Apr-25 10:00 360 2 22.0
2015-Apr-25 09:00 060 4 22.0
2015-Apr-25 08:00 060 5 20.0
2015-Apr-25 07:00 120 6 19.0
2015-Apr-25 06:00 080 8 17.0
2015-Apr-25 05:00 080 4 15.0
2015-Apr-25 04:00 10.0
2015-Apr-25 03:00 10.0
2015-Apr-25 02:00 11.0
2015-Apr-25 01:00 12.0
2015-Apr-25 00:00 12.0
2015-Apr-24 23:00 080 2 13.0
2015-Apr-24 22:00 030 4 15.0